VENESAT-1

导读

VENESAT-1(西蒙·玻利瓦尔卫星)是委内瑞拉首颗通信卫星,以拉美独立领袖西蒙·玻利瓦尔命名,由中国空间技术研究院采用东方红四号平台研制,于北京时间2008年10月29日在西昌卫星发射中心由长征三号乙运载火箭发射升空。卫星重5100千克,设计寿命15年,配备多波段转发器,覆盖南美及加勒比区域,为委内瑞拉提供通信、广播、远程教育等服务,是中委航天合作的首个成果。

基本信息
目录编号:
33414
目录名称:
VENESAT-1
国际标识:
2008-055A
轨道中心:
EARTH
卫星名称:
VENESAT-1
卫星全名:
--
卫星状态:
在轨 (已飞行6444 天)
发射日期:
2008-10-29 UTC
国别 :
(VE)
星等 :
--
轨道信息
数据来源 国际轨道数据 AOE轨道数据
星历时间 2026-06-20T12:02:50+0800
1天前
查看轨道信息
2026-06-19T16:00:00+0800
2天前
查看轨道信息
半长轴 42447.301km 42447.216km
偏心率 0.0062759 0.0062611
轨道倾角 5.767° 5.765°
近地点辐角 193.799° 193.870°
升交点赤经 72.976° 72.987°
平近点角 14.775° 76.163°
近地点 35802.768km 35803.312km
远地点 36335.56km 36334.846km
周期 1450.557分钟 1450.553分钟
每日圈数 0.992722 0.992725
详细信息
使用方式:
暂无
2D轨道图
3D轨道图
轨道高度分析图
轨道倾角分析图
轨道综合分析图
查看轨道综合分析图